Home   Weather   Ilulissat   Past weeks
Flag for Greenland

Past Weather in Ilulissat, Greenland — Yesterday and Last 2 Weeks

Now
43 °F

Partly sunny.


Feels Like: 43 °F
Forecast: 43 / 39 °F
Wind: No wind

Location: Jacobshavn Lufthavn

Current Time: Aug 21, 2019 at 12:02:57 pm

Latest Report: Aug 21, 2019 at 10:50 am


Visibility: N/A

Pressure: 29.86 "Hg

Humidity: 76%

Dew Point: 36 °F

Location of IlulissatLocation

Past Weather in Ilulissat — Graph

°F

Ilulissat Temperature Yesterday

Maximum temperature yesterday: 46 °F (at 4:50 pm)
Minimum temperature yesterday: 34 °F (at 4:50 am)
Average temperature yesterday: 42 °F

High & Low Weather Summary for the Past Weeks

 TemperatureHumidityPressure
High61 °F (Aug 11, 3:50 pm)100% (Aug 6, 11:50 pm)30.18 "Hg (Aug 6, 11:50 pm)
Low34 °F (Aug 20, 4:50 am)23% (Aug 13, 11:50 am)29.68 "Hg (Aug 18, 8:50 am)
Average46 °F65%29.97 "Hg
* Reported Aug 6 10:50 am — Aug 21 10:50 am, Ilulissat. Weather by CustomWeather, © 2019

Note: Actual official high and low records may vary slightly from our data, if they occured in-between our weather recording intervals... More about our weather records

Advertising

Ilulissat Weather History for the Previous 24 Hours

Scroll right to see more
 ConditionsComfort  
Time TempWeatherWind HumidityBarometerVisibility
10:50 am
Wed, Aug 21
43 °FPartly sunny.No wind76%29.86 "HgN/A
9:50 am43 °FScattered clouds.3 mph76%29.86 "HgN/A
8:50 am39 °FScattered clouds.3 mph87%29.86 "HgN/A
7:50 am39 °FScattered clouds.No wind81%29.86 "HgN/A
6:50 am41 °FBroken clouds.No wind81%29.86 "HgN/A
5:50 am41 °FBroken clouds.1 mph81%29.86 "HgN/A
4:50 am39 °FPartly cloudy.3 mph81%29.86 "HgN/A
3:50 am39 °FPassing clouds.3 mph87%29.86 "HgN/A
2:50 am39 °FPartly cloudy.No wind81%29.83 "HgN/A
1:50 am41 °FPartly cloudy.No wind76%29.86 "HgN/A
12:50 am41 °FPartly cloudy.No wind81%29.86 "HgN/A
11:50 pm
Tue, Aug 20
43 °FPassing clouds.No wind76%29.86 "HgN/A
10:50 pm43 °FPassing clouds.No wind71%29.86 "HgN/A
9:50 pm45 °FScattered clouds.No wind71%29.86 "HgN/A
8:50 pm45 °FScattered clouds.No wind71%29.86 "HgN/A
7:50 pm46 °FScattered clouds.3 mph66%29.86 "HgN/A
6:50 pm45 °FScattered clouds.3 mph76%29.86 "HgN/A
5:50 pm46 °FScattered clouds.3 mph66%29.86 "HgN/A
4:50 pm46 °FScattered clouds.3 mph71%29.86 "HgN/A
3:50 pm45 °FScattered clouds.5 mph76%29.86 "HgN/A
2:50 pm45 °FScattered clouds.5 mph71%29.86 "HgN/A
1:50 pm45 °FScattered clouds.5 mph71%29.86 "HgN/A
12:50 pm45 °FScattered clouds.6 mph71%29.89 "HgN/A
Weather by CustomWeather, © 2019

See weather overview